| time (UTC) | temp F | wind direction | speed knots | gust knots | rain 1hr in | rain 24hr in | rain mn in | humidity % | barometer mb |
| 20260510195021 | 55 | 270 | 0.0 | 0.9 | 0.00 | 0.00 | 0.00 | 62 | 1007.4 |
| 20260510194021 | 56 | 90 | 0.0 | 1.7 | 0.00 | 0.00 | 0.00 | 57 | 1007.4 |
| 20260510193025 | 58 | 45 | 0.9 | 1.7 | 0.00 | 0.00 | 0.00 | 57 | 1007.4 |
| 20260510192021 | 58 | 45 | 0.9 | 3.5 | 0.00 | 0.00 | 0.00 | 59 | 1007.4 |
| 20260510191020 | 58 | 45 | 0.9 | 2.6 | 0.00 | 0.00 | 0.00 | 60 | 1007.6 |
| 20260510190035 | 58 | 90 | 1.7 | 3.5 | 0.00 | 0.00 | 0.00 | 59 | 1007.6 |
| 20260510185356 | 59 | 0 | 0.9 | 1.7 | 0.00 | 0.00 | 0.00 | 58 | 1007.5 |
| 20260510184020 | 59 | 90 | 0.9 | 2.6 | 0.00 | 0.00 | 0.00 | 56 | 1007.6 |
| 20260510183024 | 60 | 45 | 0.0 | 2.6 | 0.00 | 0.00 | 0.00 | 56 | 1007.5 |
| 20260510182020 | 60 | 0 | 0.9 | 3.5 | 0.00 | 0.00 | 0.00 | 55 | 1007.5 |
| 20260510180035 | 63 | 0 | 1.7 | 3.5 | 0.00 | 0.00 | 0.00 | 50 | 1007.6 |
| 20260510173025 | 66 | 90 | 1.7 | 3.5 | 0.00 | 0.00 | 0.00 | 45 | 1007.6 |
| 20260510172020 | 66 | 45 | 1.7 | 3.5 | 0.00 | 0.00 | 0.00 | 45 | 1007.7 |
| 20260510171018 | 67 | 0 | 1.7 | 3.5 | 0.00 | 0.00 | 0.00 | 45 | 1007.7 |
| 20260510170033 | 68 | 0 | 0.9 | 3.5 | 0.00 | 0.00 | 0.00 | 46 | 1007.8 |
| 20260510165017 | 69 | 180 | 1.7 | 4.3 | 0.00 | 0.00 | 0.00 | 41 | 1007.7 |
| 20260510164019 | 71 | 180 | 0.9 | 2.6 | 0.00 | 0.00 | 0.00 | 40 | 1007.7 |
| 20260510162019 | 71 | 180 | 2.6 | 4.3 | 0.00 | 0.00 | 0.00 | 45 | 1007.9 |
| 20260510161021 | 71 | 180 | 1.7 | 3.5 | 0.00 | 0.00 | 0.00 | 41 | 1007.9 |
| 20260510154020 | 73 | 0 | 1.7 | 5.2 | 0.00 | 0.00 | 0.00 | 41 | 1008.2 |
| 20260510152020 | 73 | 180 | 0.9 | 3.5 | 0.00 | 0.00 | 0.00 | 36 | 1008.5 |
| 20260510150034 | 73 | 180 | 2.6 | 4.3 | 0.00 | 0.00 | 0.00 | 38 | 1008.6 |
| 20260510145018 | 73 | 270 | 3.5 | 5.2 | 0.00 | 0.00 | 0.00 | 37 | 1008.6 |
| 20260510144019 | 72 | 180 | 1.7 | 3.5 | 0.00 | 0.00 | 0.00 | 34 | 1008.9 |
| 20260510143033 | 73 | 270 | 0.9 | 3.5 | 0.00 | 0.00 | 0.00 | 38 | 1008.9 |
| 20260510142019 | 72 | 135 | 1.7 | 3.5 | 0.00 | 0.00 | 0.00 | 34 | 1009.3 |
| 20260510135019 | 72 | 0 | 1.7 | 3.5 | 0.00 | 0.00 | 0.00 | 32 | 1009.7 |
| 20260510133024 | 72 | 180 | 1.7 | 3.5 | 0.00 | 0.00 | 0.00 | 34 | 1009.9 |
| 20260510131022 | 72 | 135 | 2.6 | 3.5 | 0.00 | 0.00 | 0.00 | 30 | 1010.1 |
| 20260510130038 | 71 | 180 | 1.7 | 6.1 | 0.00 | 0.00 | 0.00 | 30 | 1010.4 |
| 20260510125018 | 73 | 180 | 1.7 | 6.1 | 0.00 | 0.00 | 0.00 | 31 | 1010.4 |
| 20260510120027 | 71 | 45 | 1.7 | 3.5 | 0.00 | 0.00 | 0.00 | 37 | 1011.1 |
| 20260510115016 | 69 | 270 | 1.7 | 4.3 | 0.00 | 0.00 | 0.00 | 40 | 1011.4 |
| 20260510105016 | 67 | 225 | 2.6 | 5.2 | 0.00 | 0.00 | 0.00 | 45 | 1012.5 |
| 20260510104013 | 66 | 180 | 1.7 | 3.5 | 0.00 | 0.00 | 0.00 | 46 | 1012.7 |
| 20260510103021 | 67 | 135 | 1.7 | 4.3 | 0.00 | 0.00 | 0.00 | 43 | 1012.6 |
| 20260510102016 | 67 | 135 | 1.7 | 3.5 | 0.00 | 0.00 | 0.00 | 45 | 1012.8 |
| 20260510101015 | 66 | 270 | 2.6 | 7.0 | 0.00 | 0.00 | 0.00 | 47 | 1012.8 |
| 20260510100032 | 65 | 270 | 3.5 | 5.2 | 0.00 | 0.00 | 0.00 | 51 | 1013.0 |
| 20260510095016 | 66 | 135 | 1.7 | 3.5 | 0.00 | 0.00 | 0.00 | 46 | 1013.0 |
| 20260510094011 | 64 | 90 | 2.6 | 4.3 | 0.00 | 0.00 | 0.00 | 47 | 1013.2 |
| 20260510093015 | 64 | 180 | 2.6 | 6.1 | 0.00 | 0.00 | 0.00 | 47 | 1013.4 |
| 20260510092014 | 63 | 135 | 2.6 | 5.2 | 0.00 | 0.00 | 0.00 | 48 | 1013.5 |
| 20260510091018 | 62 | 90 | 1.7 | 3.5 | 0.00 | 0.00 | 0.00 | 48 | 1013.8 |
| 20260510090029 | 62 | 180 | 2.6 | 7.0 | 0.00 | 0.00 | 0.00 | 50 | 1014.0 |
| 20260510085012 | 62 | 180 | 1.7 | 4.3 | 0.00 | 0.00 | 0.00 | 50 | 1014.3 |
| 20260510084016 | 61 | 180 | 1.7 | 3.5 | 0.00 | 0.00 | 0.00 | 50 | 1014.4 |
| 20260510083022 | 61 | 45 | 1.7 | 3.5 | 0.00 | 0.00 | 0.00 | 53 | 1014.4 |
| 20260510081016 | 61 | 135 | 3.5 | 6.1 | 0.00 | 0.00 | 0.00 | 51 | 1014.7 |
| 20260510080030 | 61 | 135 | 3.5 | 6.1 | 0.00 | 0.00 | 0.00 | 53 | 1014.7 |
| 20260510075016 | 60 | 135 | 3.5 | 6.1 | 0.00 | 0.00 | 0.00 | 55 | 1014.9 |
| 20260510074012 | 60 | 135 | 3.5 | 7.0 | 0.00 | 0.00 | 0.00 | 58 | 1015.1 |
| 20260510073016 | 59 | 135 | 2.6 | 5.2 | 0.00 | 0.00 | 0.00 | 60 | 1015.3 |
| 20260510072016 | 58 | 90 | 2.6 | 4.3 | 0.00 | 0.00 | 0.00 | 61 | 1015.4 |
| 20260510071018 | 58 | 135 | 3.5 | 4.3 | 0.00 | 0.00 | 0.00 | 62 | 1015.5 |
| 20260510063019 | 54 | 135 | 1.7 | 3.5 | 0.00 | 0.00 | 0.00 | 70 | 1016.2 |
| 20260510062016 | 53 | 90 | 1.7 | 3.5 | 0.00 | 0.00 | 0.00 | 70 | 1016.5 |
| 20260510061013 | 53 | 45 | 1.7 | 3.5 | 0.00 | 0.00 | 0.00 | 74 | 1016.7 |
| 20260510060028 | 51 | 45 | 1.7 | 3.5 | 0.00 | 0.00 | 0.00 | 75 | 1016.8 |
| 20260510055017 | 50 | 90 | 0.9 | 3.5 | 0.00 | 0.00 | 0.00 | 79 | 1016.8 |
| 20260510054016 | 49 | 45 | 0.9 | 2.6 | 0.00 | 0.00 | 0.00 | 79 | 1016.8 |
| 20260510053024 | 47 | 45 | 0.9 | 2.6 | 0.00 | 0.00 | 0.00 | 82 | 1016.9 |
| 20260510051015 | 45 | 90 | 1.7 | 2.6 | 0.00 | 0.00 | 0.00 | 85 | 1016.9 |
| 20260510050019 | 44 | 45 | 0.9 | 3.5 | 0.00 | 0.00 | 0.00 | 87 | 1017.0 |
| 20260510045012 | 43 | 45 | 0.9 | 3.5 | 0.00 | 0.00 | 0.00 | 89 | 1016.9 |
| 20260510044013 | 42 | 45 | 0.9 | 2.6 | 0.00 | 0.00 | 0.00 | 91 | 1017.0 |
| 20260510043015 | 41 | 45 | 0.0 | 1.7 | 0.00 | 0.00 | 0.00 | 92 | 1017.2 |
| 20260510042013 | 40 | 45 | 1.7 | 3.5 | 0.00 | 0.00 | 0.00 | 94 | 1017.1 |
| 20260510040020 | 38 | 45 | 0.9 | 1.7 | 0.00 | 0.00 | 0.00 | 94 | 1017.3 |
| 20260510031006 | 36 | 270 | 0.0 | 0.9 | 0.00 | 0.00 | 0.00 | 94 | 1017.7 |
| 20260510030012 | 37 | 90 | 0.0 | 1.7 | 0.00 | 0.00 | 0.00 | 94 | 1017.7 |
| 20260510025006 | 37 | 90 | 0.0 | 1.7 | 0.00 | 0.00 | 0.00 | 94 | 1017.7 |
| 20260510024011 | 37 | 45 | 0.0 | 0.9 | 0.00 | 0.00 | 0.00 | 94 | 1017.6 |
| 20260510022010 | 38 | 0 | 0.9 | 1.7 | 0.00 | 0.00 | 0.00 | 94 | 1018.0 |
| 20260510021011 | 36 | 45 | 0.0 | 0.9 | 0.00 | 0.00 | 0.00 | 94 | 1018.1 |
| 20260510015010 | 36 | 45 | 0.0 | 0.0 | 0.00 | 0.00 | 0.00 | 94 | 1018.2 |
| 20260510014008 | 37 | 0 | 0.0 | 0.9 | 0.00 | 0.00 | 0.00 | 93 | 1018.1 |
| 20260510013010 | 36 | 0 | 0.0 | 0.0 | 0.00 | 0.00 | 0.00 | 93 | 1018.0 |
| 20260510012009 | 37 | 0 | 0.0 | 0.9 | 0.00 | 0.00 | 0.00 | 93 | 1018.1 |
| 20260510011010 | 37 | 0 | 0.0 | 0.0 | 0.00 | 0.00 | 0.00 | 93 | 1018.3 |
| 20260510010015 | 37 | 0 | 0.0 | 0.0 | 0.00 | 0.00 | 0.00 | 93 | 1018.5 |
| 20260510004008 | 37 | 180 | 0.0 | 0.9 | 0.00 | 0.00 | 0.00 | 93 | 1018.5 |
| 20260510003009 | 37 | 0 | 0.0 | 0.9 | 0.00 | 0.00 | 0.00 | 92 | 1018.5 |
| 20260510002009 | 38 | 180 | 0.0 | 0.9 | 0.00 | 0.00 | 0.00 | 93 | 1018.6 |
| 20260510001011 | 38 | 45 | 0.0 | 0.0 | 0.00 | 0.00 | 0.00 | 92 | 1018.6 |
| 20260509234009 | 39 | 45 | 0.0 | 0.9 | 0.00 | 0.00 | 0.00 | 91 | 1018.8 |
| 20260509233010 | 39 | 45 | 0.0 | 0.0 | 0.00 | 0.00 | 0.00 | 91 | 1019.0 |
| 20260509231006 | 40 | 45 | 0.0 | 1.7 | 0.00 | 0.00 | 0.00 | 89 | 1018.9 |
| 20260509225008 | 42 | 45 | 0.9 | 1.7 | 0.00 | 0.00 | 0.00 | 88 | 1018.9 |
| 20260509224006 | 41 | 0 | 0.0 | 1.7 | 0.00 | 0.00 | 0.00 | 88 | 1019.2 |
| 20260509222009 | 42 | 45 | 0.0 | 1.7 | 0.00 | 0.00 | 0.00 | 86 | 1019.0 |
| 20260509221009 | 43 | 0 | 0.0 | 1.7 | 0.00 | 0.00 | 0.00 | 86 | 1019.1 |
| 20260509220014 | 44 | 180 | 0.9 | 2.6 | 0.00 | 0.00 | 0.00 | 85 | 1019.0 |
| 20260509215008 | 43 | 270 | 0.9 | 1.7 | 0.00 | 0.00 | 0.00 | 87 | 1019.0 |
| 20260509214008 | 43 | 270 | 0.0 | 0.9 | 0.00 | 0.00 | 0.00 | 85 | 1019.0 |
| 20260509213008 | 44 | 225 | 0.0 | 0.9 | 0.00 | 0.00 | 0.00 | 83 | 1018.8 |
| 20260509211009 | 46 | 270 | 0.0 | 0.9 | 0.00 | 0.00 | 0.00 | 80 | 1018.8 |
| 20260509205008 | 48 | 90 | 0.9 | 1.7 | 0.00 | 0.00 | 0.00 | 78 | 1018.7 |
| 20260509204009 | 48 | 90 | 1.7 | 2.6 | 0.00 | 0.00 | 0.00 | 77 | 1018.6 |
| 20260509202009 | 49 | 45 | 1.7 | 2.6 | 0.00 | 0.00 | 0.00 | 76 | 1018.5 |
| 20260509201007 | 50 | 90 | 1.7 | 2.6 | 0.00 | 0.00 | 0.00 | 75 | 1018.6 |
| 20260509200012 | 50 | 45 | 1.7 | 2.6 | 0.00 | 0.00 | 0.00 | 75 | 1018.6 |